Find Starlink 36588

NORAD ID: 67573 Int'l Des: 2026-016 Owner: SPXS Country: US Constellation: starlink operational
LEOCIRCULARRETROGRADE

Current View

Loading 3D Globe...

About Starlink 36588

Description loading...

Upcoming Passes

Passes for default location (London). Set your location on the main map for personalized predictions.

Altitude History

Loading altitude history...

Two-Line Element Set

1 67573U 26016N 26146.14416715 .00015801 00000-0 49057-3 0 9994
2 67573 97.2860 206.4516 0001464 94.5600 265.5810 15.33456227 18739
Epoch: May 26, 2026 • Age: 13 hours

Current Status

Altitude 476.8 km
Velocity 7.63 km/s
Sub-Earth Point 70.99°N, 82.46°W
Launch Date Jan 25, 2026
Age 0.3 years
Type internet

Technical Details

Classification Payload
Mass 575.00 kg
Dry Mass 530.00 kg
Total Mass 575.00 kg
Length 0.30 m
Diameter 4.10 m
Span 29.00 m
Shape Box + pan
Manufacturer SPXS
Bus Type Starlink V2MO
Phase Status In Orbit
Owner/State SPXS/US

Most Searched